Flag for Germany Weather past 2 weeks in Achim, Lower Saxony, Germany

Now
45 °F

Passing clouds.


Feels Like: 38 °F
Forecast: 40 / 60 °F
Wind: 14 mph from Northwest

Location: Bremen Airport

Current Time: Apr 22, 2015 at 2:33:01 AM

Latest Report: Apr 22, 2015 at 1:50 AM


Visibility: N/A

Pressure: 30.42 "Hg

Humidity: 87%

Dew point: 41 °F

Location of AchimLocation

Historic Weather in Achim — Graph

°F

Achim temperature yesterday

Maximum temperature yesterday: 63 °F (at 1:50 PM)
Minimum temperature yesterday: 37 °F (at 6:20 AM)
Average temperature yesterday: 49 °F

Past Weeks' High & Low Weather Summary

 TemperatureHumidityPressure
High72 °F (Apr 15, 2:50 PM)100% (Apr 7, 3:50 AM)30.57 "Hg (Apr 7, 3:50 AM)
Low30 °F (Apr 7, 4:20 AM)31% (Apr 19, 5:20 PM)29.89 "Hg (Apr 15, 3:20 PM)
Average49 °F73%30.25 "Hg
* Reported Apr 7 12:20 AM — Apr 22 12:50 AM, Achim, Weather by CustomWeather, © 2015

Note: Actual official high and low records may vary slightly from our data, if they occured in-between our weather recording intervals... More about our weather records

Advertising

Achim weather history for previous 24 hours

 ConditionsComfort  
Time TempWeatherWind HumidityBarometerVisibility
12:50 AM
Wed, Apr 22
45 °FPassing clouds.12 mph87%30.42 "HgN/A
12:20 AM45 °FPassing clouds.10 mph87%30.42 "HgN/A
11:50 PM
Tue, Apr 21
45 °FPassing clouds.13 mph87%30.42 "HgN/A
11:20 PM45 °FPassing clouds.10 mph87%30.42 "HgN/A
10:50 PM46 °FPassing clouds.12 mph76%30.42 "HgN/A
10:20 PM46 °FPassing clouds.15 mph76%30.42 "HgN/A
9:50 PM46 °FPassing clouds.15 mph76%30.42 "HgN/A
9:20 PM46 °FPartly sunny.16 mph76%30.42 "HgN/A
8:50 PM46 °FPartly sunny.18 mph76%30.42 "HgN/A
8:20 PM46 °FPartly sunny.14 mph76%30.42 "HgN/A
7:50 PM48 °FPartly sunny.14 mph76%30.42 "HgN/A
7:20 PM48 °FPartly sunny.14 mph76%30.42 "HgN/A
6:50 PM48 °FPartly sunny.18 mph76%30.42 "HgN/A
6:20 PM50 °FPartly sunny.17 mph71%30.42 "HgN/A
5:50 PM54 °FPartly sunny.17 mph67%30.39 "HgN/A
5:20 PM55 °FPartly sunny.18 mph59%30.39 "HgN/A
4:50 PM57 °FSunny.17 mph48%30.39 "Hg10 mi
4:20 PM57 °FSunny.16 mph44%30.42 "Hg10 mi
3:50 PM59 °FPassing clouds.16 mph42%30.42 "HgN/A
3:20 PM59 °FSunny.16 mph42%30.42 "Hg10 mi
2:50 PM59 °FPassing clouds.17 mph48%30.42 "HgN/A
2:20 PM59 °FSunny.18 mph39%30.42 "Hg10 mi
1:50 PM63 °FSunny.20 mph39%30.42 "Hg10 mi
1:20 PM61 °FSunny.17 mph42%30.42 "Hg10 mi
12:50 PM61 °FPassing clouds.16 mph45%30.42 "HgN/A
12:20 PM59 °FSunny.15 mph48%30.42 "Hg10 mi
11:50 AM59 °FSunny.14 mph55%30.42 "Hg10 mi
11:20 AM57 °FSunny.13 mph59%30.42 "Hg10 mi
10:50 AM55 °FSunny.10 mph63%30.42 "Hg10 mi
10:20 AM54 °FSunny.9 mph67%30.42 "Hg10 mi
9:50 AM52 °FSunny.10 mph77%30.42 "Hg10 mi
9:20 AM48 °FSunny.8 mph82%30.42 "Hg10 mi
8:50 AM46 °FSunny.10 mph87%30.42 "Hg10 mi
8:20 AM46 °FSunny.10 mph87%30.39 "Hg10 mi
7:50 AM45 °FSunny.6 mph93%30.39 "Hg10 mi
7:20 AM37 °FSunny.5 mph100%30.39 "Hg10 mi
6:50 AM37 °FFog.6 mph100%30.39 "HgN/A
6:20 AM37 °FFog.6 mph100%30.39 "HgN/A
5:20 AM39 °FFog.3 mph100%30.39 "HgN/A
4:50 AM39 °FFog.3 mph100%30.39 "HgN/A
4:20 AM39 °FFog.3 mph100%30.39 "HgN/A
3:50 AM41 °FFog.3 mph100%30.39 "HgN/A
3:20 AM41 °FFog.3 mph100%30.39 "HgN/A
2:50 AM41 °FFog.5 mph93%30.39 "HgN/A
2:20 AM41 °FFog.5 mph93%30.39 "HgN/A
Weather by CustomWeather, © 2015

See weather overviewHow to use our weather pages